Regional Weather Roundup
Issued by NWS

Home | Current Version | Previous Version | Graphics & Text | Print | Product List | Glossary Off
Versions: 1 2 3 4 5 6 7 8 9 10 11 12 13 14 15 16 17 18 19 20 21 22 23 24 25 26 27 28 29 30 31 32 33 34 35 36 37 38 39 40 41 42 43 44 45 46 47 48 49 50

000
ASUS43 KTOP 220959
RWRKS

WEATHER ROUNDUP FOR KANSAS
NATIONAL WEATHER SERVICE GOODLAND KS
500 AM CDT TUE APR 22 2014

NOTE:  "FAIR" INDICATES FEW OR NO CLOUDS BELOW 12,000 FEET WITH NO
SIGNIFICANT WEATHER AND/OR OBSTRUCTIONS TO VISIBILITY.

KSZ001>006-013>018-027>032-041>047-221100-
NORTHWEST KANSAS

CITY           SKY/WX    TMP DP  RH WIND       PRES   REMARKS
GOODLAND       PTCLDY    45  32  60 S13       30.15S
HAYS           CLEAR     43  30  61 CALM      30.16S
HILL CITY      CLEAR     40  36  86 CALM      30.16S
RUSSELL        CLEAR     38  30  73 S5        30.15R
$$

KSZ061>065-074>080-084>089-221100-
SOUTHWEST KANSAS

CITY           SKY/WX    TMP DP  RH WIND       PRES   REMARKS
DODGE CITY     CLEAR     44  29  55 NE7       30.16S
ELKHART          N/A     47  36  66 SE7         N/A
GARDEN CITY    CLEAR     45  32  60 E8        30.15F
GREAT BEND     CLEAR     43  28  56 E3        30.16S
LIBERAL        CLEAR     52  32  46 E6        30.18R
$$

KSZ066>073-081>083-090>101-221100-
SOUTHEAST KANSAS

CITY           SKY/WX    TMP DP  RH WIND       PRES   REMARKS
CHANUTE        CLEAR     51  38  60 N6        30.09R
COFFEYVILLE    CLEAR     51  43  74 N9        30.07R
HUTCHINSON     CLEAR     49  26  41 N7        30.15R
NEWTON         CLEAR     48  25  40 NE9       30.16S
PARSONS        CLEAR     54  39  57 N8        30.09R
WICHITA INTL   PTCLDY    51  29  42 N7        30.13R
WICHITA JABRA  CLEAR     47  30  51 N10       30.12R
WINFIELD       CLEAR     49  35  58 N8        30.11R
$$

KSZ007>012-019>026-033>040-048>060-102>105-221100-
NORTHEAST KANSAS

CITY           SKY/WX    TMP DP  RH WIND       PRES   REMARKS
CONCORDIA      CLEAR     44  29  55 SE6       30.15S
EMPORIA        CLEAR     50  33  52 N9        30.12R
LAWRENCE       CLEAR     48  36  63 NW8       30.13R
MANHATTAN      CLEAR     50  32  50 NE5       30.15R
OLATHE IND     CLEAR     40  34  79 N9        30.12R
OLATHE EXE     CLEAR     51  37  58 N7        30.10R
SALINA         CLEAR     46  28  49 CALM      30.15S
TOPEKA BILLARD CLEAR     49  35  58 N5        30.14R
TOPEKA FORBES  CLEAR     49  35  58 N6        30.13R
$$



USA.gov is the U.S. government's official web portal to all federal, state and local government web resources and services.